| time (UTC) | temp F | wind direction | speed MPH | gust MPH | rain 1hr in | rain 24hr in | rain mn in | humidity % | barometer mb |
| 20260509001516 | 65 | 284 | 0.0 | 0.0 | 0.00 | 0.00 | 0.00 | 63 | 1014.7 |
| 20260509000020 | 65 | 284 | 0.0 | 1.0 | 0.00 | 0.00 | 0.00 | 62 | 1014.6 |
| 20260508234505 | 66 | 262 | 0.0 | 0.0 | 0.00 | 0.00 | 0.00 | 61 | 1014.6 |
| 20260508233008 | 66 | 306 | 0.0 | 0.0 | 0.00 | 0.00 | 0.00 | 58 | 1014.6 |
| 20260508231512 | 67 | 271 | 0.0 | 1.0 | 0.00 | 0.00 | 0.00 | 57 | 1014.5 |
| 20260508230018 | 67 | 83 | 0.0 | 1.0 | 0.00 | 0.00 | 0.00 | 57 | 1014.6 |
| 20260508224506 | 67 | 271 | 0.0 | 3.0 | 0.00 | 0.00 | 0.00 | 55 | 1014.7 |
| 20260508223014 | 68 | 264 | 0.0 | 2.0 | 0.00 | 0.00 | 0.00 | 52 | 1014.6 |
| 20260508221517 | 68 | 288 | 0.0 | 1.0 | 0.00 | 0.00 | 0.00 | 52 | 1014.6 |
| 20260508220023 | 68 | 276 | 0.0 | 3.0 | 0.00 | 0.00 | 0.00 | 50 | 1014.4 |
| 20260508214519 | 68 | 270 | 1.0 | 3.0 | 0.00 | 0.00 | 0.00 | 50 | 1014.7 |
| 20260508213011 | 69 | 256 | 0.0 | 2.0 | 0.00 | 0.00 | 0.00 | 49 | 1014.6 |
| 20260508211508 | 69 | 308 | 0.0 | 0.0 | 0.00 | 0.00 | 0.00 | 50 | 1014.5 |
| 20260508210010 | 69 | 287 | 0.0 | 2.0 | 0.00 | 0.00 | 0.00 | 49 | 1014.6 |
| 20260508204518 | 69 | 287 | 1.0 | 3.0 | 0.00 | 0.00 | 0.00 | 48 | 1014.5 |
| 20260508203021 | 70 | 123 | 0.0 | 3.0 | 0.00 | 0.00 | 0.00 | 50 | 1014.9 |
| 20260508201507 | 69 | 129 | 0.0 | 4.0 | 0.00 | 0.00 | 0.00 | 49 | 1015.0 |
| 20260508200008 | 70 | 39 | 0.0 | 4.0 | 0.00 | 0.00 | 0.00 | 47 | 1015.3 |
| 20260508194514 | 70 | 262 | 2.0 | 4.0 | 0.00 | 0.00 | 0.00 | 46 | 1015.5 |
| 20260508193019 | 70 | 253 | 0.0 | 3.0 | 0.00 | 0.00 | 0.00 | 46 | 1015.7 |
| 20260508191526 | 70 | 360 | 0.0 | 4.0 | 0.00 | 0.00 | 0.00 | 49 | 1015.8 |
| 20260508190033 | 69 | 311 | 0.0 | 2.0 | 0.00 | 0.00 | 0.00 | 51 | 1016.2 |
| 20260508184515 | 68 | 89 | 0.0 | 3.0 | 0.00 | 0.00 | 0.00 | 51 | 1016.3 |
| 20260508183018 | 67 | 81 | 0.0 | 3.0 | 0.00 | 0.00 | 0.00 | 52 | 1016.5 |
| 20260508181540 | 69 | 302 | 2.0 | 4.0 | 0.00 | 0.00 | 0.00 | 48 | 1016.8 |
| 20260508180023 | 68 | 140 | 0.0 | 4.0 | 0.00 | 0.00 | 0.00 | 51 | 1016.9 |
| 20260508174529 | 68 | 305 | 0.0 | 5.0 | 0.00 | 0.00 | 0.00 | 51 | 1016.8 |
| 20260508173011 | 68 | 111 | 1.0 | 4.0 | 0.00 | 0.00 | 0.00 | 51 | 1017.0 |
| 20260508171516 | 66 | 117 | 0.0 | 6.0 | 0.00 | 0.00 | 0.00 | 52 | 1017.4 |
| 20260508170004 | 66 | 242 | 0.0 | 4.0 | 0.00 | 0.00 | 0.00 | 55 | 1017.5 |
| 20260508164505 | 66 | 122 | 1.0 | 3.0 | 0.00 | 0.00 | 0.00 | 51 | 1017.8 |
| 20260508163007 | 66 | 131 | 0.0 | 2.0 | 0.00 | 0.00 | 0.00 | 53 | 1018.1 |
| 20260508161514 | 66 | 120 | 0.0 | 2.0 | 0.00 | 0.00 | 0.00 | 54 | 1018.1 |
| 20260508160003 | 65 | 340 | 0.0 | 3.0 | 0.00 | 0.00 | 0.00 | 52 | 1018.4 |
| 20260508154503 | 64 | 113 | 0.0 | 3.0 | 0.00 | 0.00 | 0.00 | 53 | 1018.6 |
| 20260508153006 | 65 | 245 | 1.0 | 5.0 | 0.00 | 0.00 | 0.00 | 55 | 1018.7 |
| 20260508151511 | 63 | 89 | 0.0 | 2.0 | 0.00 | 0.00 | 0.00 | 59 | 1018.6 |
| 20260508150018 | 63 | 114 | 1.0 | 3.0 | 0.00 | 0.00 | 0.00 | 55 | 1018.6 |
| 20260508144521 | 63 | 95 | 0.0 | 4.0 | 0.00 | 0.00 | 0.00 | 56 | 1018.4 |
| 20260508143003 | 62 | 131 | 1.0 | 6.0 | 0.00 | 0.00 | 0.00 | 57 | 1018.5 |
| 20260508141511 | 62 | 138 | 1.0 | 3.0 | 0.00 | 0.00 | 0.00 | 58 | 1018.6 |
| 20260508140012 | 61 | 146 | 1.0 | 4.0 | 0.00 | 0.01 | 0.00 | 60 | 1018.9 |
| 20260508134519 | 61 | 79 | 1.0 | 2.0 | 0.00 | 0.04 | 0.00 | 64 | 1018.9 |
| 20260508133024 | 60 | 126 | 1.0 | 3.0 | 0.00 | 0.07 | 0.00 | 65 | 1018.8 |
| 20260508131508 | 59 | 69 | 1.0 | 3.0 | 0.00 | 0.09 | 0.00 | 68 | 1018.6 |
| 20260508130011 | 58 | 28 | 0.0 | 0.0 | 0.00 | 0.09 | 0.00 | 72 | 1018.4 |
| 20260508124517 | 56 | 24 | 0.0 | 0.0 | 0.00 | 0.10 | 0.00 | 76 | 1018.4 |
| 20260508123020 | 55 | 359 | 0.0 | 0.0 | 0.00 | 0.10 | 0.00 | 77 | 1018.4 |
| 20260508121524 | 55 | 350 | 0.0 | 2.0 | 0.00 | 0.11 | 0.00 | 78 | 1018.2 |
| 20260508120008 | 54 | 356 | 0.0 | 0.0 | 0.00 | 0.14 | 0.00 | 79 | 1018.0 |
| 20260508114514 | 53 | 13 | 0.0 | 0.0 | 0.00 | 0.18 | 0.00 | 80 | 1017.8 |
| 20260508113017 | 52 | 22 | 0.0 | 1.0 | 0.00 | 0.25 | 0.00 | 81 | 1017.5 |
| 20260508111524 | 52 | 22 | 0.0 | 0.0 | 0.00 | 0.30 | 0.00 | 82 | 1017.3 |
| 20260508110024 | 52 | 22 | 0.0 | 0.0 | 0.00 | 0.30 | 0.00 | 83 | 1016.9 |
| 20260508104521 | 51 | 24 | 0.0 | 0.0 | 0.00 | 0.31 | 0.00 | 84 | 1016.7 |
| 20260508101507 | 50 | 78 | 0.0 | 0.0 | 0.00 | 0.37 | 0.00 | 90 | 1016.2 |
| 20260508100006 | 50 | 78 | 0.0 | 0.0 | 0.00 | 0.38 | 0.00 | 89 | 1016.0 |
| 20260508094506 | 50 | 78 | 0.0 | 0.0 | 0.00 | 0.38 | 0.00 | 89 | 1015.8 |
| 20260508093012 | 50 | 78 | 0.0 | 0.0 | 0.00 | 0.38 | 0.00 | 89 | 1015.8 |
| 20260508091515 | 51 | 78 | 0.0 | 0.0 | 0.00 | 0.38 | 0.00 | 89 | 1015.6 |
| 20260508090024 | 51 | 78 | 0.0 | 0.0 | 0.00 | 0.40 | 0.00 | 89 | 1015.7 |
| 20260508084506 | 51 | 78 | 0.0 | 0.0 | 0.00 | 0.46 | 0.00 | 89 | 1015.5 |
| 20260508083009 | 51 | 78 | 0.0 | 0.0 | 0.00 | 0.52 | 0.00 | 88 | 1015.3 |
| 20260508081512 | 51 | 78 | 0.0 | 0.0 | 0.00 | 0.57 | 0.00 | 87 | 1015.3 |
| 20260508080018 | 52 | 78 | 0.0 | 0.0 | 0.00 | 0.58 | 0.00 | 86 | 1015.3 |
| 20260508074522 | 52 | 78 | 0.0 | 0.0 | 0.00 | 0.61 | 0.00 | 86 | 1015.3 |
| 20260508073007 | 52 | 78 | 0.0 | 0.0 | 0.00 | 0.65 | 0.00 | 85 | 1015.3 |
| 20260508071511 | 52 | 78 | 0.0 | 0.0 | 0.00 | 0.70 | 0.00 | 85 | 1015.3 |
| 20260508070016 | 52 | 78 | 0.0 | 0.0 | 0.00 | 0.74 | 0.00 | 84 | 1015.1 |
| 20260508064532 | 53 | 78 | 0.0 | 0.0 | 0.00 | 0.79 | 0.00 | 84 | 1015.1 |
| 20260508063025 | 53 | 78 | 0.0 | 0.0 | 0.00 | 0.84 | 0.00 | 84 | 1015.1 |
| 20260508061515 | 53 | 78 | 0.0 | 0.0 | 0.00 | 0.93 | 0.00 | 84 | 1015.1 |
| 20260508060016 | 54 | 78 | 0.0 | 0.0 | 0.00 | 1.01 | 0.00 | 83 | 1015.3 |
| 20260508054518 | 54 | 78 | 0.0 | 0.0 | 0.00 | 1.09 | 0.00 | 82 | 1015.4 |
| 20260508053027 | 55 | 78 | 0.0 | 0.0 | 0.00 | 1.17 | 0.00 | 81 | 1015.2 |
| 20260508051525 | 56 | 78 | 0.0 | 0.0 | 0.00 | 1.40 | 0.00 | 79 | 1015.2 |
| 20260508050018 | 56 | 78 | 0.0 | 0.0 | 0.00 | 1.62 | 0.00 | 77 | 1015.0 |
| 20260508044516 | 57 | 78 | 0.0 | 0.0 | 0.00 | 1.65 | 0.00 | 75 | 1014.8 |
| 20260508043020 | 58 | 78 | 0.0 | 0.0 | 0.00 | 1.67 | 0.00 | 73 | 1014.8 |
| 20260508041523 | 59 | 78 | 0.0 | 0.0 | 0.00 | 1.70 | 0.00 | 70 | 1014.6 |
| 20260508040035 | 60 | 78 | 0.0 | 0.0 | 0.00 | 1.70 | 0.00 | 67 | 1014.9 |
| 20260508034529 | 60 | 78 | 0.0 | 0.0 | 0.00 | 1.70 | 1.70 | 66 | 1014.7 |
| 20260508033021 | 61 | 78 | 0.0 | 0.0 | 0.00 | 1.70 | 1.70 | 67 | 1014.7 |
| 20260508031527 | 61 | 78 | 0.0 | 0.0 | 0.00 | 1.70 | 1.70 | 67 | 1014.6 |
| 20260508030026 | 62 | 79 | 0.0 | 0.0 | 0.00 | 1.70 | 1.70 | 66 | 1014.4 |
| 20260508024507 | 62 | 86 | 0.0 | 2.0 | 0.00 | 1.71 | 1.70 | 65 | 1014.3 |
| 20260508023024 | 63 | 326 | 0.0 | 2.0 | 0.00 | 1.72 | 1.70 | 63 | 1014.2 |
| 20260508021518 | 63 | 48 | 0.0 | 4.0 | 0.00 | 1.84 | 1.70 | 58 | 1013.8 |
| 20260508020004 | 64 | 1 | 1.0 | 6.0 | 0.00 | 1.86 | 1.70 | 57 | 1013.6 |
| 20260508014517 | 64 | 356 | 1.0 | 3.0 | 0.00 | 1.96 | 1.70 | 59 | 1013.3 |
| 20260508013008 | 65 | 44 | 1.0 | 6.0 | 0.00 | 2.17 | 1.70 | 61 | 1012.9 |
| 20260508011513 | 65 | 34 | 1.0 | 4.0 | 0.00 | 2.32 | 1.70 | 61 | 1012.5 |
| 20260508010026 | 66 | 27 | 0.0 | 4.0 | 0.00 | 2.33 | 1.70 | 64 | 1012.1 |
| 20260508004513 | 66 | 344 | 1.0 | 5.0 | 0.00 | 2.33 | 1.70 | 63 | 1011.7 |
| 20260508003023 | 67 | 351 | 1.0 | 8.0 | 0.00 | 2.33 | 1.70 | 62 | 1011.4 |